Showing default

COSMOS 2449 (GLONASS), 33467

Orbit data source: Space-Track

COSMOS 2449 (GLONASS), 33467 is a Commonwealth of Independent States-origin payload satellite in MEO that was launched on Thu, 25 Dec 2008 UTC via a PROTON-M/DM-2 launch vehicle from the Tyuratam Missile And Space Complex (TTMTR). Payload-class satellites include a variety of spacecraft equipped with specific instruments for various scientific and technological missions. These include communications satellites like Starlink; space stations such as the ISS; scientific satellites like the Hubble; Earth observation satellites from companies like Planet Labs, Umbra, and HawkEye 360; GPS; miniature CubeSats for education and research; and military/defense satellites.

Loading next visibility...
Identifier
33467, 2008-067B
Orbit
MEO
Country
Flag of CISCIS
Related business
Manufacturer
Resehetnev ISS
Mission
Non-operational Defense Navigation
Bus & Motor
URAGAN, Unknown motor
Mass
1,450 kg wet, ~1,200 kg dry
Launch date (UTC)
2008-12-25 (17 years ago)
Launch vehicle
PROTON-M/DM-2
Launch site
Tyuratam Missile And Space Complex (TTMTR)
Object type
Payload
Rocket body
Debris
Shape & HBR
Cyl + 1 Ant + 2 Pan, 3.9 m
Radar Cross Section
8.467 m², Large (>1 m²)

Expand to show TLE details & history
Last TLE update: 4 days ago

TLE from 4 days ago
0 COSMOS 2449 (GLONASS)
1 33467U 08067B   26070.74616364  .00000031  00000-0  00000+0 0  9999
2 33467  64.7508  72.6074 0033962 238.7666 120.9295  2.13096907133880
Epoch: 2026-03-11T17:54Z
TLE epoch observation values (Epoch: 2026-03-11T17:54:28.538Z)
Latitude
-0.00001°
Longitude
-5.42436°
Altitude
19,175.505 km
Speed
3.946 km/s
True Right ascension
04h 50m 24s
True Declination
0° 00' 00"
Sunlit
Object was in daylight at epoch
Visualization orbit readout
Latitude
Unknown
Longitude
Unknown
Altitude
Unknown
Speed
Unknown
Apparent Right ascension
Unknown
Apparent Declination
Unknown
Sunlit
N/A
Visualization observer readout
Local Sidereal Time
17:48:29
Azimuth
Unknown
Elevation
Unknown
Doppler factor
Unknown
Orbital elements
Apogee altitude
19,216.548 km
Perigee altitude
19,043.287 km
Semi-major axis
25,508.054 km
Eccentricity
0.0034
Inclination
64.7508°
RAAN
72.6074°
Arg. of periapsis
238.7666°
True anomaly
121.26261°
Mean anomaly
120.9295°
Eccentric anomaly
121.09613°
Mean motion
0.53275 °/min
Orbital period
675.73 mins
BSTAR
0
Loading maneuver chart data...
Computing Atmospheric mass density...
Loading historical data...
Loading historical data...
Loading historical data...
Loading historical data...
Loading historical data...
Loading historical data...
Loading historical data...

Documentation

Showing up to 5 results
|